Terminal Aerodrome Forecast
Issued by NWS San Angelo, TX

Home | Current Version | Previous Version | Text Only | Print | Product List | Glossary On
Versions: 1 2 3 4 5 6 7 8 9 10 11 12 13 14 15 16 17 18
000
FTUS44 KSJT 041728
TAFSJT
TAF
KSJT 041728Z 0418/0518 17008KT P6SM SCT080
     FM050100 14008KT P6SM SCT250
     FM051300 17010KT P6SM BKN015=

USA.gov is the U.S. government's official web portal to all federal, state and local government web resources and services.